| time (UTC) | temp F | wind direction | speed MPH | gust MPH | rain 1hr in | rain 24hr in | rain mn in | humidity % | barometer mb |
| 20260904190315 | 66 | 112 | 1.0 | 7.0 | 0.00 | 0.13 | 0.09 | 63 | 1009.3 |
| 20260904185335 | 67 | 128 | 4.0 | 8.0 | 0.00 | 0.13 | 0.09 | 63 | 1009.2 |
| 20260904184313 | 66 | 164 | 2.0 | 7.0 | 0.00 | 0.13 | 0.09 | 66 | 1009.3 |
| 20260904183314 | 65 | 145 | 4.0 | 15.0 | 0.00 | 0.13 | 0.09 | 65 | 1009.3 |
| 20260904182313 | 65 | 96 | 1.0 | 12.0 | 0.00 | 0.13 | 0.09 | 71 | 1009.2 |
| 20260904181317 | 63 | 186 | 0.0 | 7.0 | 0.00 | 0.13 | 0.09 | 72 | 1009.2 |
| 20260904180337 | 62 | 156 | 0.0 | 5.0 | 0.00 | 0.13 | 0.09 | 74 | 1009.2 |
| 20260904175314 | 62 | 134 | 0.0 | 7.0 | 0.00 | 0.13 | 0.09 | 74 | 1009.1 |
| 20260904174313 | 62 | 140 | 1.0 | 8.0 | 0.00 | 0.13 | 0.09 | 75 | 1008.9 |
| 20260904173312 | 61 | 159 | 0.0 | 7.0 | 0.00 | 0.13 | 0.09 | 76 | 1008.9 |
| 20260904172331 | 60 | 147 | 0.0 | 8.0 | 0.00 | 0.13 | 0.09 | 78 | 1008.8 |
| 20260904171312 | 60 | 148 | 0.0 | 6.0 | 0.00 | 0.13 | 0.09 | 78 | 1008.8 |
| 20260904170312 | 60 | 101 | 0.0 | 6.0 | 0.00 | 0.13 | 0.09 | 79 | 1008.8 |
| 20260904165312 | 60 | 115 | 2.0 | 7.0 | 0.00 | 0.13 | 0.09 | 79 | 1008.7 |
| 20260904164331 | 60 | 128 | 0.0 | 4.0 | 0.00 | 0.13 | 0.09 | 83 | 1008.7 |
| 20260904163331 | 59 | 110 | 0.0 | 0.0 | 0.00 | 0.13 | 0.09 | 86 | 1008.7 |
| 20260904162331 | 58 | 110 | 0.0 | 0.0 | 0.00 | 0.13 | 0.09 | 89 | 1008.6 |
| 20260904161329 | 58 | 110 | 0.0 | 0.0 | 0.00 | 0.13 | 0.09 | 91 | 1008.5 |
| 20260904160331 | 57 | 110 | 0.0 | 0.0 | 0.00 | 0.13 | 0.09 | 92 | 1008.5 |
| 20260904155348 | 57 | 110 | 0.0 | 0.0 | 0.00 | 0.13 | 0.09 | 96 | 1008.5 |
| 20260904154327 | 56 | 110 | 0.0 | 0.0 | 0.00 | 0.13 | 0.09 | 97 | 1008.4 |
| 20260904153312 | 56 | 110 | 0.0 | 0.0 | 0.00 | 0.13 | 0.09 | 97 | 1008.4 |
| 20260904152312 | 56 | 110 | 0.0 | 0.0 | 0.00 | 0.13 | 0.09 | 98 | 1008.2 |
| 20260904151329 | 56 | 110 | 0.0 | 0.0 | 0.00 | 0.13 | 0.09 | 98 | 1007.9 |
| 20260904150327 | 55 | 110 | 0.0 | 1.0 | 0.00 | 0.13 | 0.09 | 98 | 1007.9 |
| 20260904145326 | 55 | 111 | 0.0 | 0.0 | 0.00 | 0.13 | 0.09 | 98 | 1007.8 |
| 20260904144326 | 55 | 111 | 0.0 | 0.0 | 0.00 | 0.13 | 0.09 | 98 | 1007.7 |
| 20260904143326 | 54 | 111 | 0.0 | 0.0 | 0.00 | 0.13 | 0.09 | 98 | 1007.7 |
| 20260904142325 | 54 | 111 | 0.0 | 0.0 | 0.00 | 0.13 | 0.09 | 98 | 1007.6 |
| 20260904141324 | 54 | 111 | 0.0 | 0.0 | 0.00 | 0.13 | 0.09 | 98 | 1007.4 |
| 20260904140323 | 54 | 111 | 0.0 | 0.0 | 0.00 | 0.13 | 0.09 | 98 | 1007.4 |
| 20260904135323 | 54 | 111 | 0.0 | 0.0 | 0.00 | 0.13 | 0.09 | 98 | 1007.3 |
| 20260904134342 | 54 | 111 | 0.0 | 0.0 | 0.00 | 0.13 | 0.09 | 98 | 1007.2 |
| 20260904133320 | 54 | 111 | 0.0 | 0.0 | 0.00 | 0.13 | 0.09 | 98 | 1007.2 |
| 20260904132338 | 54 | 111 | 0.0 | 0.0 | 0.00 | 0.13 | 0.09 | 97 | 1007.2 |
| 20260904131316 | 54 | 111 | 0.0 | 0.0 | 0.00 | 0.13 | 0.09 | 97 | 1007.2 |
| 20260904130314 | 54 | 111 | 0.0 | 0.0 | 0.00 | 0.13 | 0.09 | 97 | 1007.2 |
| 20260904125313 | 54 | 111 | 0.0 | 0.0 | 0.00 | 0.15 | 0.09 | 97 | 1007.2 |
| 20260904124317 | 54 | 111 | 0.0 | 0.0 | 0.00 | 0.15 | 0.09 | 97 | 1007.1 |
| 20260904123317 | 54 | 111 | 0.0 | 0.0 | 0.01 | 0.15 | 0.09 | 97 | 1007.1 |
| 20260904122338 | 54 | 112 | 0.0 | 0.0 | 0.02 | 0.15 | 0.09 | 96 | 1007.1 |
| 20260904121316 | 54 | 112 | 0.0 | 0.0 | 0.02 | 0.15 | 0.09 | 96 | 1007.1 |
| 20260904120317 | 54 | 112 | 0.0 | 0.0 | 0.02 | 0.15 | 0.09 | 96 | 1007.1 |
| 20260904115317 | 54 | 112 | 0.0 | 0.0 | 0.02 | 0.15 | 0.09 | 96 | 1007.1 |
| 20260904114317 | 55 | 112 | 0.0 | 0.0 | 0.02 | 0.15 | 0.09 | 96 | 1006.9 |
| 20260904113315 | 55 | 112 | 0.0 | 0.0 | 0.02 | 0.14 | 0.08 | 96 | 1006.9 |
| 20260904112315 | 55 | 112 | 0.0 | 0.0 | 0.02 | 0.13 | 0.07 | 96 | 1006.7 |
| 20260904111334 | 55 | 112 | 0.0 | 0.0 | 0.04 | 0.13 | 0.07 | 95 | 1006.7 |
| 20260904110313 | 55 | 112 | 0.0 | 0.0 | 0.05 | 0.13 | 0.07 | 95 | 1006.7 |
| 20260904105313 | 55 | 112 | 0.0 | 0.0 | 0.06 | 0.13 | 0.07 | 94 | 1006.7 |
| 20260904104333 | 55 | 112 | 0.0 | 0.0 | 0.06 | 0.13 | 0.07 | 94 | 1006.7 |
| 20260904103313 | 55 | 112 | 0.0 | 0.0 | 0.05 | 0.12 | 0.06 | 93 | 1006.7 |
| 20260904102312 | 55 | 112 | 0.0 | 0.0 | 0.03 | 0.10 | 0.04 | 93 | 1006.6 |
| 20260904101311 | 55 | 112 | 0.0 | 0.0 | 0.02 | 0.09 | 0.03 | 92 | 1006.4 |
| 20260904100317 | 55 | 112 | 0.0 | 0.0 | 0.01 | 0.08 | 0.02 | 92 | 1006.4 |
| 20260904095334 | 55 | 112 | 0.0 | 0.0 | 0.01 | 0.08 | 0.01 | 92 | 1006.3 |
| 20260904094312 | 55 | 112 | 0.0 | 0.0 | 0.01 | 0.08 | 0.01 | 91 | 1006.3 |
| 20260904093313 | 55 | 112 | 0.0 | 0.0 | 0.01 | 0.08 | 0.01 | 90 | 1006.3 |
| 20260904092311 | 56 | 129 | 0.0 | 0.0 | 0.01 | 0.08 | 0.01 | 90 | 1006.2 |
| 20260904091330 | 56 | 129 | 0.0 | 0.0 | 0.01 | 0.08 | 0.01 | 89 | 1006.2 |
| 20260904090352 | 56 | 129 | 0.0 | 0.0 | 0.01 | 0.08 | 0.01 | 86 | 1006.2 |
| 20260904085328 | 56 | 129 | 0.0 | 0.0 | 0.00 | 0.07 | 0.00 | 85 | 1006.3 |
| 20260904084327 | 56 | 129 | 0.0 | 0.0 | 0.00 | 0.07 | 0.00 | 83 | 1006.2 |
| 20260904083327 | 57 | 129 | 0.0 | 0.0 | 0.00 | 0.07 | 0.00 | 81 | 1006.2 |
| 20260904082326 | 57 | 129 | 0.0 | 0.0 | 0.00 | 0.07 | 0.00 | 80 | 1006.2 |
| 20260904081326 | 57 | 129 | 0.0 | 2.0 | 0.00 | 0.07 | 0.00 | 78 | 1006.2 |
| 20260904080326 | 57 | 129 | 0.0 | 0.0 | 0.00 | 0.07 | 0.00 | 83 | 1006.2 |
| 20260904075345 | 57 | 129 | 0.0 | 0.0 | 0.00 | 0.07 | 0.00 | 84 | 1006.1 |
| 20260904074324 | 57 | 129 | 0.0 | 0.0 | 0.00 | 0.07 | 0.00 | 82 | 1006.1 |
| 20260904073324 | 57 | 129 | 0.0 | 1.0 | 0.00 | 0.07 | 0.00 | 84 | 1006.1 |
| 20260904072321 | 57 | 129 | 0.0 | 0.0 | 0.00 | 0.07 | 0.00 | 81 | 1006.1 |
| 20260904071320 | 57 | 127 | 0.0 | 0.0 | 0.00 | 0.07 | 0.00 | 83 | 1006.1 |
| 20260904070340 | 57 | 127 | 0.0 | 1.0 | 0.00 | 0.07 | 0.00 | 82 | 1006.1 |
| 20260904065320 | 57 | 134 | 0.0 | 3.0 | 0.00 | 0.07 | 0.07 | 81 | 1005.9 |
| 20260904064320 | 57 | 155 | 0.0 | 3.0 | 0.00 | 0.07 | 0.07 | 82 | 1005.7 |
| 20260904063319 | 57 | 119 | 0.0 | 4.0 | 0.00 | 0.07 | 0.07 | 85 | 1005.7 |
| 20260904062338 | 56 | 121 | 0.0 | 3.0 | 0.00 | 0.07 | 0.07 | 88 | 1005.7 |
| 20260904061321 | 56 | 109 | 0.0 | 0.0 | 0.00 | 0.07 | 0.07 | 93 | 1005.7 |
| 20260904060322 | 57 | 109 | 0.0 | 0.0 | 0.00 | 0.07 | 0.07 | 93 | 1005.7 |
| 20260904055322 | 57 | 109 | 0.0 | 0.0 | 0.00 | 0.07 | 0.07 | 93 | 1006.0 |
| 20260904054321 | 57 | 109 | 0.0 | 0.0 | 0.00 | 0.07 | 0.07 | 92 | 1005.8 |
| 20260904053316 | 57 | 109 | 0.0 | 0.0 | 0.00 | 0.07 | 0.07 | 92 | 1005.8 |
| 20260904052336 | 57 | 109 | 0.0 | 0.0 | 0.00 | 0.07 | 0.07 | 92 | 1006.1 |
| 20260904051351 | 57 | 109 | 0.0 | 0.0 | 0.00 | 0.07 | 0.07 | 92 | 1006.2 |
| 20260904050331 | 57 | 109 | 0.0 | 0.0 | 0.00 | 0.07 | 0.07 | 92 | 1006.2 |
| 20260904045328 | 57 | 109 | 0.0 | 1.0 | 0.00 | 0.07 | 0.07 | 92 | 1006.2 |
| 20260904044328 | 57 | 124 | 0.0 | 0.0 | 0.00 | 0.07 | 0.07 | 92 | 1006.3 |
| 20260904043329 | 57 | 124 | 0.0 | 0.0 | 0.00 | 0.07 | 0.07 | 92 | 1006.3 |
| 20260904042328 | 57 | 124 | 0.0 | 0.0 | 0.00 | 0.07 | 0.07 | 92 | 1006.4 |
| 20260904041348 | 57 | 123 | 0.0 | 0.0 | 0.00 | 0.07 | 0.07 | 92 | 1006.4 |
| 20260904040328 | 57 | 136 | 0.0 | 4.0 | 0.00 | 0.07 | 0.07 | 92 | 1006.4 |
| 20260904035327 | 57 | 98 | 0.0 | 0.0 | 0.00 | 0.07 | 0.07 | 92 | 1006.2 |
| 20260904034324 | 57 | 98 | 0.0 | 0.0 | 0.00 | 0.07 | 0.07 | 92 | 1006.1 |
| 20260904033324 | 57 | 98 | 0.0 | 0.0 | 0.00 | 0.07 | 0.07 | 92 | 1006.1 |
| 20260904032313 | 57 | 96 | 0.0 | 0.0 | 0.00 | 0.07 | 0.07 | 91 | 1006.0 |
| 20260904031311 | 58 | 97 | 0.0 | 0.0 | 0.00 | 0.07 | 0.07 | 90 | 1006.1 |
| 20260904030330 | 58 | 97 | 0.0 | 0.0 | 0.00 | 0.07 | 0.07 | 89 | 1006.1 |
| 20260904025329 | 59 | 97 | 0.0 | 0.0 | 0.00 | 0.14 | 0.07 | 89 | 1006.1 |
| 20260904024313 | 59 | 97 | 0.0 | 0.0 | 0.00 | 0.14 | 0.07 | 88 | 1006.1 |
| 20260904023313 | 59 | 97 | 0.0 | 0.0 | 0.00 | 0.14 | 0.07 | 87 | 1006.1 |
| 20260904022312 | 60 | 104 | 0.0 | 0.0 | 0.00 | 0.14 | 0.07 | 85 | 1006.2 |
| 20260904021332 | 60 | 115 | 0.0 | 0.0 | 0.00 | 0.14 | 0.07 | 81 | 1006.2 |
| 20260904020310 | 61 | 115 | 0.0 | 0.0 | 0.00 | 0.14 | 0.07 | 81 | 1006.2 |
| 20260904015330 | 61 | 115 | 0.0 | 1.0 | 0.00 | 0.19 | 0.07 | 80 | 1006.2 |
| 20260904014330 | 62 | 115 | 0.0 | 1.0 | 0.00 | 0.19 | 0.07 | 79 | 1006.2 |
| 20260904013311 | 62 | 105 | 0.0 | 2.0 | 0.00 | 0.19 | 0.07 | 77 | 1006.2 |
| 20260904012351 | 62 | 144 | 0.0 | 4.0 | 0.00 | 0.19 | 0.07 | 74 | 1006.1 |
| 20260904011311 | 62 | 117 | 0.0 | 0.0 | 0.00 | 0.19 | 0.07 | 72 | 1006.1 |
| 20260904010311 | 63 | 117 | 0.0 | 0.0 | 0.00 | 0.19 | 0.07 | 71 | 1006.1 |
| 20260904005352 | 63 | 117 | 0.0 | 6.0 | 0.00 | 0.19 | 0.07 | 72 | 1006.1 |
| 20260904004328 | 64 | 70 | 0.0 | 1.0 | 0.00 | 0.19 | 0.07 | 70 | 1006.2 |
| 20260904003328 | 64 | 15 | 0.0 | 0.0 | 0.00 | 0.19 | 0.07 | 65 | 1006.2 |
| 20260904002326 | 64 | 15 | 0.0 | 3.0 | 0.00 | 0.19 | 0.07 | 65 | 1006.2 |
| 20260904001326 | 64 | 271 | 0.0 | 3.0 | 0.00 | 0.19 | 0.07 | 64 | 1006.2 |
| 20260904000325 | 63 | 277 | 1.0 | 4.0 | 0.00 | 0.19 | 0.07 | 63 | 1006.2 |
| 20260903235323 | 63 | 273 | 0.0 | 4.0 | 0.00 | 0.19 | 0.07 | 64 | 1006.3 |
| 20260903234321 | 63 | 233 | 1.0 | 5.0 | 0.00 | 0.19 | 0.07 | 65 | 1006.4 |
| 20260903233321 | 62 | 180 | 0.0 | 7.0 | 0.00 | 0.19 | 0.07 | 67 | 1006.4 |
| 20260903232321 | 62 | 242 | 0.0 | 5.0 | 0.00 | 0.19 | 0.07 | 66 | 1006.6 |
| 20260903231324 | 62 | 220 | 1.0 | 12.0 | 0.00 | 0.19 | 0.07 | 67 | 1006.7 |
| 20260903230325 | 63 | 239 | 2.0 | 13.0 | 0.01 | 0.19 | 0.07 | 67 | 1006.7 |
| 20260903225345 | 63 | 290 | 1.0 | 13.0 | 0.01 | 0.19 | 0.07 | 70 | 1006.6 |
| 20260903224323 | 62 | 174 | 4.0 | 11.0 | 0.03 | 0.19 | 0.07 | 72 | 1006.7 |
| 20260903223323 | 62 | 248 | 2.0 | 7.0 | 0.04 | 0.19 | 0.07 | 76 | 1006.7 |
| 20260903222322 | 62 | 238 | 1.0 | 10.0 | 0.04 | 0.19 | 0.07 | 80 | 1006.7 |
| 20260903221322 | 61 | 202 | 0.0 | 2.0 | 0.04 | 0.19 | 0.07 | 83 | 1006.7 |
| 20260903220322 | 60 | 254 | 0.0 | 9.0 | 0.03 | 0.18 | 0.06 | 81 | 1006.7 |
| 20260903215321 | 62 | 219 | 1.0 | 11.0 | 0.03 | 0.19 | 0.06 | 79 | 1006.7 |
| 20260903214321 | 66 | 284 | 10.0 | 22.0 | 0.01 | 0.17 | 0.04 | 68 | 1006.1 |
| 20260903213321 | 68 | 187 | 0.0 | 1.0 | 0.00 | 0.16 | 0.03 | 52 | 1006.1 |
| 20260903212321 | 69 | 206 | 1.0 | 4.0 | 0.00 | 0.16 | 0.03 | 51 | 1006.1 |
| 20260903211340 | 69 | 163 | 2.0 | 6.0 | 0.00 | 0.16 | 0.03 | 49 | 1006.1 |
| 20260903210319 | 70 | 309 | 0.0 | 5.0 | 0.00 | 0.16 | 0.03 | 50 | 1006.1 |
| 20260903205338 | 69 | 150 | 3.0 | 11.0 | 0.00 | 0.16 | 0.03 | 50 | 1006.1 |
| 20260903204318 | 69 | 204 | 2.0 | 10.0 | 0.00 | 0.16 | 0.03 | 51 | 1006.2 |
| 20260903203338 | 69 | 243 | 1.0 | 5.0 | 0.00 | 0.16 | 0.03 | 54 | 1006.2 |
| 20260903202316 | 68 | 240 | 1.0 | 5.0 | 0.00 | 0.16 | 0.03 | 53 | 1006.7 |
| 20260903201315 | 68 | 245 | 2.0 | 9.0 | 0.00 | 0.16 | 0.03 | 56 | 1006.7 |
| 20260903200316 | 68 | 108 | 2.0 | 6.0 | 0.00 | 0.16 | 0.03 | 55 | 1006.7 |
| 20260903195315 | 68 | 221 | 2.0 | 8.0 | 0.00 | 0.16 | 0.03 | 58 | 1007.1 |
| 20260903194318 | 68 | 171 | 3.0 | 8.0 | 0.00 | 0.16 | 0.03 | 57 | 1007.3 |
| 20260903193339 | 67 | 257 | 2.0 | 7.0 | 0.00 | 0.16 | 0.03 | 59 | 1007.3 |
| 20260903192317 | 65 | 125 | 2.0 | 9.0 | 0.00 | 0.16 | 0.03 | 62 | 1007.5 |
| 20260903191317 | 65 | 204 | 0.0 | 7.0 | 0.00 | 0.16 | 0.03 | 67 | 1007.7 |